Time,TemperatureF,DewpointF,PressureIn,WindDirection,WindDirectionDegrees,WindSpeedMPH,WindSpeedGustMPH,Humidity,HourlyPrecipIn,Conditions,Clouds,dailyrainin,SolarRadiationWatts/m^2,SoftwareType,DateUTC
2013-01-09 00:02:00,63.0,59.0,-100.00,NNW,327,3.0,22.0,86,0.00,,,0.00,0.000000,,2013-01-09 10:02:00,
2013-01-09 00:11:00,63.0,59.0,-100.00,NNW,327,3.0,22.0,86,0.00,,,0.00,0.000000,,2013-01-09 10:11:00,
2013-01-09 00:22:00,63.0,59.0,-100.00,NNW,327,3.0,22.0,86,0.00,,,0.00,0.000000,,2013-01-09 10:22:00,
2013-01-09 00:32:00,63.0,59.0,-100.00,NNW,327,3.0,22.0,86,0.00,,,0.00,0.000000,,2013-01-09 10:32:00,
2013-01-09 00:52:00,63.0,58.0,-100.00,NNW,343,6.0,18.0,83,0.00,,,-99.99,0.000000,,2013-01-09 10:52:00,
2013-01-09 01:02:00,63.0,58.0,-100.00,NNW,343,6.0,18.0,83,0.00,,,-99.99,0.000000,,2013-01-09 11:02:00,
2013-01-09 01:12:00,63.0,58.0,-100.00,NNW,343,6.0,18.0,83,0.00,,,-99.99,0.000000,,2013-01-09 11:12:00,
2013-01-09 01:22:00,63.0,58.0,-100.00,NNW,343,6.0,18.0,83,0.00,,,-99.99,0.000000,,2013-01-09 11:22:00,
2013-01-09 01:32:00,63.0,58.0,-100.00,NNW,343,6.0,18.0,83,0.00,,,-99.99,0.000000,,2013-01-09 11:32:00,
2013-01-09 01:53:00,62.0,57.0,-100.00,WNW,283,6.0,28.0,85,0.00,,,0.00,0.000000,,2013-01-09 11:53:00,
2013-01-09 02:03:00,62.0,57.0,-100.00,WNW,283,6.0,28.0,85,0.00,,,0.00,0.000000,,2013-01-09 12:03:00,
2013-01-09 02:12:00,62.0,57.0,-100.00,WNW,283,6.0,28.0,85,0.00,,,0.00,0.000000,,2013-01-09 12:12:00,
2013-01-09 02:22:00,62.0,57.0,-100.00,WNW,283,6.0,28.0,85,0.00,,,0.00,0.000000,,2013-01-09 12:22:00,
2013-01-09 02:32:00,62.0,57.0,-100.00,WNW,283,6.0,28.0,85,0.00,,,0.00,0.000000,,2013-01-09 12:32:00,
2013-01-09 03:02:00,61.0,57.0,-100.00,ESE,105,4.0,27.0,86,0.00,,,0.00,0.000000,,2013-01-09 13:02:00,
2013-01-09 03:12:00,61.0,57.0,-100.00,ESE,105,4.0,27.0,86,0.00,,,0.00,0.000000,,2013-01-09 13:12:00,
2013-01-09 03:22:00,61.0,57.0,-100.00,ESE,105,4.0,27.0,86,0.00,,,0.00,0.000000,,2013-01-09 13:22:00,
2013-01-09 03:32:00,61.0,57.0,-100.00,ESE,105,4.0,27.0,86,0.00,,,0.00,0.000000,,2013-01-09 13:32:00,
2013-01-09 04:02:00,62.0,55.0,-100.00,West,270,6.0,27.0,79,0.00,,,0.00,0.000000,,2013-01-09 14:02:00,
2013-01-09 04:12:00,62.0,55.0,-100.00,West,270,6.0,27.0,79,0.00,,,0.00,0.000000,,2013-01-09 14:12:00,
2013-01-09 04:22:00,62.0,55.0,-100.00,West,270,6.0,27.0,79,0.00,,,0.00,0.000000,,2013-01-09 14:22:00,
2013-01-09 04:32:00,62.0,55.0,-100.00,West,270,6.0,27.0,79,0.00,,,0.00,0.000000,,2013-01-09 14:32:00,
2013-01-09 04:53:00,61.0,55.0,-100.00,ESE,107,6.0,23.0,82,0.00,,,0.00,0.000000,,2013-01-09 14:53:00,
2013-01-09 05:03:00,61.0,55.0,-100.00,ESE,107,6.0,23.0,82,0.00,,,0.00,0.000000,,2013-01-09 15:03:00,
2013-01-09 05:12:00,61.0,55.0,-100.00,ESE,107,6.0,23.0,82,0.00,,,0.00,0.000000,,2013-01-09 15:12:00,
2013-01-09 05:22:00,61.0,55.0,-100.00,ESE,107,6.0,23.0,82,0.00,,,0.00,0.000000,,2013-01-09 15:22:00,
2013-01-09 05:33:00,61.0,55.0,-100.00,ESE,107,6.0,23.0,82,0.00,,,0.00,0.000000,,2013-01-09 15:33:00,
2013-01-09 05:53:00,63.0,57.0,-100.00,NNW,328,4.0,19.0,81,0.00,,,0.00,0.000000,,2013-01-09 15:53:00,
2013-01-09 06:03:00,63.0,57.0,-100.00,NNW,328,4.0,19.0,81,0.00,,,0.00,0.000000,,2013-01-09 16:03:00,
2013-01-09 06:12:00,63.0,57.0,-100.00,NNW,328,4.0,19.0,81,0.00,,,0.00,0.000000,,2013-01-09 16:12:00,
2013-01-09 06:22:00,63.0,57.0,-100.00,NNW,328,4.0,19.0,81,0.00,,,0.00,0.000000,,2013-01-09 16:22:00,
2013-01-09 06:33:00,63.0,57.0,-100.00,NNW,328,4.0,19.0,81,0.00,,,0.00,0.000000,,2013-01-09 16:33:00,
2013-01-09 07:02:00,63.0,57.0,-100.00,South,169,4.0,15.0,82,0.00,,,0.00,0.000000,,2013-01-09 17:02:00,
2013-01-09 07:12:00,63.0,57.0,-100.00,South,169,4.0,15.0,82,0.00,,,0.00,0.000000,,2013-01-09 17:12:00,
2013-01-09 07:22:00,63.0,57.0,-100.00,South,169,4.0,15.0,82,0.00,,,0.00,0.000000,,2013-01-09 17:22:00,
2013-01-09 07:32:00,63.0,57.0,-100.00,South,169,4.0,15.0,82,0.00,,,0.00,0.000000,,2013-01-09 17:32:00,
2013-01-09 07:53:00,61.0,56.0,-100.00,NE,42,5.0,17.0,84,0.00,,,0.00,0.000000,,2013-01-09 17:53:00,
2013-01-09 08:03:00,61.0,56.0,-100.00,NE,42,5.0,17.0,84,0.00,,,0.00,0.000000,,2013-01-09 18:03:00,
2013-01-09 08:12:00,61.0,56.0,-100.00,NE,42,5.0,17.0,84,0.00,,,0.00,0.000000,,2013-01-09 18:12:00,
2013-01-09 08:23:00,61.0,56.0,-100.00,NE,42,5.0,17.0,84,0.00,,,0.00,0.000000,,2013-01-09 18:23:00,
2013-01-09 08:32:00,61.0,56.0,-100.00,NE,42,5.0,17.0,84,0.00,,,0.00,0.000000,,2013-01-09 18:32:00,
2013-01-09 08:53:00,66.0,58.0,-100.00,NE,51,3.0,14.0,76,0.00,,,0.00,90.000000,,2013-01-09 18:53:00,
2013-01-09 09:02:00,66.0,58.0,-100.00,NE,51,3.0,14.0,76,0.00,,,0.00,90.000000,,2013-01-09 19:02:00,
2013-01-09 09:12:00,66.0,58.0,-100.00,NE,51,3.0,14.0,76,0.00,,,0.00,90.000000,,2013-01-09 19:12:00,
2013-01-09 09:22:00,66.0,58.0,-100.00,NE,51,3.0,14.0,76,0.00,,,0.00,90.000000,,2013-01-09 19:22:00,
2013-01-09 09:32:00,66.0,58.0,-100.00,NE,51,3.0,14.0,76,0.00,,,0.00,90.000000,,2013-01-09 19:32:00,
2013-01-09 10:02:00,70.0,58.0,-100.00,East,89,3.0,14.0,65,0.00,,,0.00,482.000000,,2013-01-09 20:02:00,
2013-01-09 10:12:00,70.0,58.0,-100.00,East,89,3.0,14.0,65,0.00,,,0.00,482.000000,,2013-01-09 20:12:00,
2013-01-09 10:22:00,70.0,58.0,-100.00,East,89,3.0,14.0,65,0.00,,,0.00,482.000000,,2013-01-09 20:22:00,
2013-01-09 10:32:00,70.0,58.0,-100.00,East,89,3.0,14.0,65,0.00,,,0.00,482.000000,,2013-01-09 20:32:00,
2013-01-09 10:53:00,69.0,60.0,-100.00,SSE,164,4.0,10.0,72,0.00,,,0.00,500.000000,,2013-01-09 20:53:00,
2013-01-09 11:03:00,69.0,60.0,-100.00,SSE,164,4.0,10.0,72,0.00,,,0.00,500.000000,,2013-01-09 21:03:00,
2013-01-09 11:12:00,69.0,60.0,-100.00,SSE,164,4.0,10.0,72,0.00,,,0.00,500.000000,,2013-01-09 21:12:00,
2013-01-09 11:22:00,69.0,60.0,-100.00,SSE,164,4.0,10.0,72,0.00,,,0.00,500.000000,,2013-01-09 21:22:00,
2013-01-09 11:32:00,69.0,60.0,-100.00,SSE,164,4.0,10.0,72,0.00,,,0.00,500.000000,,2013-01-09 21:32:00,
2013-01-09 11:53:00,70.0,59.0,-100.00,ENE,62,7.0,23.0,69,0.00,,,0.00,403.000000,,2013-01-09 21:53:00,
2013-01-09 12:03:00,70.0,59.0,-100.00,ENE,62,7.0,23.0,69,0.00,,,0.00,403.000000,,2013-01-09 22:03:00,
2013-01-09 12:12:00,70.0,59.0,-100.00,ENE,62,7.0,23.0,69,0.00,,,0.00,403.000000,,2013-01-09 22:12:00,
2013-01-09 12:22:00,70.0,59.0,-100.00,ENE,62,7.0,23.0,69,0.00,,,0.00,403.000000,,2013-01-09 22:22:00,
2013-01-09 12:32:00,70.0,59.0,-100.00,ENE,62,7.0,23.0,69,0.00,,,0.00,403.000000,,2013-01-09 22:32:00,
2013-01-09 13:02:00,69.0,57.0,-100.00,NNE,14,10.0,21.0,65,0.00,,,0.00,722.000000,,2013-01-09 23:02:00,
2013-01-09 13:12:00,69.0,57.0,-100.00,NNE,14,10.0,21.0,65,0.00,,,0.00,722.000000,,2013-01-09 23:12:00,
2013-01-09 13:22:00,69.0,57.0,-100.00,NNE,14,10.0,21.0,65,0.00,,,0.00,722.000000,,2013-01-09 23:22:00,
2013-01-09 13:32:00,69.0,57.0,-100.00,NNE,14,10.0,21.0,65,0.00,,,0.00,722.000000,,2013-01-09 23:32:00,
2013-01-09 13:53:00,70.0,57.0,-100.00,NNW,329,5.0,28.0,63,0.00,,,0.00,1020.000000,,2013-01-09 23:53:00,
2013-01-09 14:03:00,70.0,57.0,-100.00,NNW,329,5.0,28.0,63,0.00,,,0.00,1020.000000,,2013-01-10 00:03:00,
2013-01-09 14:12:00,70.0,57.0,-100.00,NNW,329,5.0,28.0,63,0.00,,,0.00,1020.000000,,2013-01-10 00:12:00,
2013-01-09 14:22:00,70.0,57.0,-100.00,NNW,329,5.0,28.0,63,0.00,,,0.00,1020.000000,,2013-01-10 00:22:00,
2013-01-09 14:32:00,70.0,57.0,-100.00,NNW,329,5.0,28.0,63,0.00,,,0.00,1020.000000,,2013-01-10 00:32:00,
2013-01-09 15:02:00,72.0,57.0,-100.00,West,276,6.0,17.0,60,0.00,,,0.00,951.000000,,2013-01-10 01:02:00,
2013-01-09 15:12:00,72.0,57.0,-100.00,West,276,6.0,17.0,60,0.00,,,0.00,951.000000,,2013-01-10 01:12:00,
2013-01-09 15:22:00,72.0,57.0,-100.00,West,276,6.0,17.0,60,0.00,,,0.00,951.000000,,2013-01-10 01:22:00,
2013-01-09 15:32:00,72.0,57.0,-100.00,West,276,6.0,17.0,60,0.00,,,0.00,951.000000,,2013-01-10 01:32:00,
2013-01-09 15:53:00,72.0,57.0,-100.00,ESE,112,5.0,25.0,60,0.00,,,0.00,957.000000,,2013-01-10 01:53:00,
2013-01-09 16:02:00,72.0,57.0,-100.00,ESE,112,5.0,25.0,60,0.00,,,0.00,957.000000,,2013-01-10 02:02:00,
2013-01-09 16:12:00,72.0,57.0,-100.00,ESE,112,5.0,25.0,60,0.00,,,0.00,957.000000,,2013-01-10 02:12:00,
2013-01-09 16:22:00,72.0,57.0,-100.00,ESE,112,5.0,25.0,60,0.00,,,0.00,957.000000,,2013-01-10 02:22:00,
2013-01-09 16:32:00,72.0,57.0,-100.00,ESE,112,5.0,25.0,60,0.00,,,0.00,957.000000,,2013-01-10 02:32:00,
2013-01-09 17:02:00,70.0,55.0,-100.00,East,83,5.0,20.0,60,0.00,,,0.00,717.000000,,2013-01-10 03:02:00,
2013-01-09 17:12:00,70.0,55.0,-100.00,East,83,5.0,20.0,60,0.00,,,0.00,717.000000,,2013-01-10 03:12:00,
2013-01-09 17:22:00,70.0,55.0,-100.00,East,83,5.0,20.0,60,0.00,,,0.00,717.000000,,2013-01-10 03:22:00,
2013-01-09 17:32:00,70.0,55.0,-100.00,East,83,5.0,20.0,60,0.00,,,0.00,717.000000,,2013-01-10 03:32:00,
2013-01-09 17:52:00,67.0,57.0,-100.00,SE,138,5.0,30.0,70,0.00,,,0.00,292.000000,,2013-01-10 03:52:00,
2013-01-09 18:02:00,67.0,57.0,-100.00,SE,138,5.0,30.0,70,0.00,,,0.00,292.000000,,2013-01-10 04:02:00,
2013-01-09 18:12:00,67.0,57.0,-100.00,SE,138,5.0,30.0,70,0.00,,,0.00,292.000000,,2013-01-10 04:12:00,
2013-01-09 18:22:00,67.0,57.0,-100.00,SE,138,5.0,30.0,70,0.00,,,0.00,292.000000,,2013-01-10 04:22:00,
2013-01-09 18:32:00,67.0,57.0,-100.00,SE,138,5.0,30.0,70,0.00,,,0.00,292.000000,,2013-01-10 04:32:00,
2013-01-09 19:03:00,64.0,55.0,-100.00,SSE,157,8.0,27.0,73,0.00,,,0.00,43.000000,,2013-01-10 05:03:00,
2013-01-09 19:12:00,64.0,55.0,-100.00,SSE,157,8.0,27.0,73,0.00,,,0.00,43.000000,,2013-01-10 05:12:00,
2013-01-09 19:22:00,64.0,55.0,-100.00,SSE,157,8.0,27.0,73,0.00,,,0.00,43.000000,,2013-01-10 05:22:00,
2013-01-09 19:32:00,64.0,55.0,-100.00,SSE,157,8.0,27.0,73,0.00,,,0.00,43.000000,,2013-01-10 05:32:00,
2013-01-09 20:02:00,62.0,56.0,-100.00,SSE,147,3.0,24.0,80,0.00,,,0.00,0.000000,,2013-01-10 06:02:00,
2013-01-09 20:11:00,62.0,56.0,-100.00,SSE,147,3.0,24.0,80,0.00,,,0.00,0.000000,,2013-01-10 06:11:00,
2013-01-09 20:22:00,62.0,56.0,-100.00,SSE,147,3.0,24.0,80,0.00,,,0.00,0.000000,,2013-01-10 06:22:00,
2013-01-09 20:32:00,62.0,56.0,-100.00,SSE,147,3.0,24.0,80,0.00,,,0.00,0.000000,,2013-01-10 06:32:00,
2013-01-09 21:02:00,64.0,57.0,-100.00,NE,44,5.0,22.0,77,0.00,,,0.00,0.000000,,2013-01-10 07:02:00,
2013-01-09 21:12:00,64.0,57.0,-100.00,NE,44,5.0,22.0,77,0.00,,,0.00,0.000000,,2013-01-10 07:12:00,
2013-01-09 21:22:00,64.0,57.0,-100.00,NE,44,5.0,22.0,77,0.00,,,0.00,0.000000,,2013-01-10 07:22:00,
2013-01-09 21:32:00,64.0,57.0,-100.00,NE,44,5.0,22.0,77,0.00,,,0.00,0.000000,,2013-01-10 07:32:00,
2013-01-09 22:01:00,62.0,54.0,-100.00,NNW,331,4.0,18.0,75,0.00,,,0.00,0.000000,,2013-01-10 08:01:00,
2013-01-09 22:11:00,62.0,54.0,-100.00,NNW,331,4.0,18.0,75,0.00,,,0.00,0.000000,,2013-01-10 08:11:00,
2013-01-09 22:22:00,62.0,54.0,-100.00,NNW,331,4.0,18.0,75,0.00,,,0.00,0.000000,,2013-01-10 08:22:00,
2013-01-09 22:32:00,62.0,54.0,-100.00,NNW,331,4.0,18.0,75,0.00,,,0.00,0.000000,,2013-01-10 08:32:00,
2013-01-09 23:02:00,61.0,54.0,-100.00,East,89,2.0,22.0,78,0.00,,,0.00,0.000000,,2013-01-10 09:02:00,
2013-01-09 23:12:00,61.0,54.0,-100.00,East,89,2.0,22.0,78,0.00,,,0.00,0.000000,,2013-01-10 09:12:00,
2013-01-09 23:22:00,61.0,54.0,-100.00,East,89,2.0,22.0,78,0.00,,,0.00,0.000000,,2013-01-10 09:22:00,
2013-01-09 23:32:00,61.0,54.0,-100.00,East,89,2.0,22.0,78,0.00,,,0.00,0.000000,,2013-01-10 09:32:00,